,,Stat1,,Stat2,,Stat3,,Stat4,,Wind1,,Wind1,
time,status,PR1M_SUM,status,RH1M_AVG,status,SR1M_AVG,status,TA1M_AVG,status,W1dAve1m,status,W1sAve1m,
2000-02-21, 00:01:00,VALID,0,VALID,84.4193,VALID,-0.0169808,VALID,20.5046,VALID,149,VALID,0,
2000-02-21, 00:02:00,VALID,0,VALID,84.6227,VALID,0,VALID,20.5476,VALID,149,VALID,0,
2000-02-21, 00:03:00,VALID,0,VALID,84.989,VALID,-0.0169808,VALID,20.5575,VALID,149,VALID,0,
2000-02-21, 00:04:00,VALID,0,VALID,84.9635,VALID,-0.0169808,VALID,20.5479,VALID,149,VALID,0,
2000-02-21, 00:05:00,VALID,0,VALID,86.0584,VALID,-0.0679233,VALID,20.5444,VALID,149,VALID,0,
2000-02-21, 00:06:00,VALID,0,VALID,85.668,VALID,-0.0509425,VALID,20.5287,VALID,149,VALID,0,
2000-02-21, 00:07:00,VALID,0,VALID,86.6891,VALID,-0.0679233,VALID,20.5123,VALID,149,VALID,0,
2000-02-21, 00:08:00,VALID,0,VALID,87.2372,VALID,-0.0339617,VALID,20.4763,VALID,149,VALID,0,
2000-02-21, 00:09:00,VALID,0,VALID,87.611,VALID,-0.0339617,VALID,20.4275,VALID,149,VALID,0,
2000-02-21, 00:10:00,VALID,0,VALID,86.9269,VALID,-0.0169808,VALID,20.3831,VALID,149,VALID,0,
2000-02-21, 00:11:00,VALID,0,VALID,87.4241,VALID,-0.0679233,VALID,20.3247,VALID,149,VALID,0,
2000-02-21, 00:12:00,VALID,0,VALID,88.037,VALID,-0.0339617,VALID,20.2929,VALID,149,VALID,0,
2000-02-21, 00:13:00,VALID,0,VALID,88.4058,VALID,0,VALID,20.2635,VALID,149,VALID,0,
2000-02-21, 00:14:00,VALID,0,VALID,87.845,VALID,-0.0849042,VALID,20.2213,VALID,149,VALID,0,
2000-02-21, 00:15:00,VALID,0,VALID,88.1158,VALID,-0.0509425,VALID,20.2372,VALID,149,VALID,0,
2000-02-21, 00:16:00,VALID,0,VALID,88.9348,VALID,-0.0679233,VALID,20.2183,VALID,149,VALID,0,
2000-02-21, 00:17:00,VALID,0,VALID,88.6779,VALID,-0.0679233,VALID,20.1763,VALID,149,VALID,0,
2000-02-21, 00:18:00,VALID,0,VALID,88.2824,VALID,-0.0339617,VALID,20.1018,VALID,149,VALID,0,
2000-02-21, 00:19:00,VALID,0,VALID,88.3867,VALID,-0.0339617,VALID,20.0598,VALID,148,VALID,0,
2000-02-21, 00:20:00,VALID,0,VALID,88.1591,VALID,-0.0339617,VALID,20.0245,VALID,148,VALID,0,
2000-02-21, 00:21:01,VALID,0,VALID,88.8979,VALID,-0.0339617,VALID,19.9885,VALID,148,VALID,0,
2000-02-21, 00:22:00,VALID,0,VALID,89.8452,VALID,-0.0169808,VALID,19.9626,VALID,148,VALID,0,
2000-02-21, 00:23:00,VALID,0,VALID,89.9355,VALID,0,VALID,19.9273,VALID,148,VALID,0,
2000-02-21, 00:24:00,VALID,0,VALID,89.5566,VALID,-0.0339617,VALID,19.8891,VALID,148,VALID,0,
2000-02-21, 00:25:00,VALID,0,VALID,89.6837,VALID,-0.0339617,VALID,19.8597,VALID,148,VALID,0,
2000-02-21, 00:26:00,VALID,0,VALID,89.7117,VALID,-0.0169808,VALID,19.8466,VALID,148,VALID,0,
2000-02-21, 00:27:00,VALID,0,VALID,89.0543,VALID,-0.0339617,VALID,19.8409,VALID,148,VALID,0,
2000-02-21, 00:28:00,VALID,0,VALID,88.6499,VALID,-0.0509425,VALID,19.8366,VALID,148,VALID,0,
2000-02-21, 00:29:00,VALID,0,VALID,88.4859,VALID,-0.0509425,VALID,19.8635,VALID,135,VALID,0,
2000-02-21, 00:30:00,VALID,0,VALID,88.5253,VALID,-0.0339617,VALID,19.8722,VALID,126,VALID,0,
2000-02-21, 00:31:00,VALID,0,VALID,88.2722,VALID,-0.101885,VALID,19.8925,VALID,128,VALID,0,
2000-02-21, 00:32:01,VALID,0,VALID,88.7173,VALID,-0.0339617,VALID,19.892,VALID,135,VALID,0,
2000-02-21, 00:33:00,VALID,0,VALID,89.334,VALID,-0.0339617,VALID,19.8955,VALID,162,VALID,0,
2000-02-21, 00:34:00,VALID,0,VALID,89.9088,VALID,-0.0509425,VALID,19.8826,VALID,177,VALID,0,
2000-02-21, 00:35:00,VALID,0,VALID,89.919,VALID,-0.0849042,VALID,19.8463,VALID,192,VALID,0.142004,
2000-02-21, 00:36:00,VALID,0,VALID,90.0067,VALID,-0.0849042,VALID,19.8148,VALID,199,VALID,0.0404647,
2000-02-21, 00:37:00,VALID,0,VALID,90.2725,VALID,-0.0509425,VALID,19.7889,VALID,200,VALID,0,
2000-02-21, 00:38:00,VALID,0,VALID,90.3437,VALID,-0.0169808,VALID,19.7524,VALID,200,VALID,0,
2000-02-21, 00:39:00,VALID,0,VALID,90.5497,VALID,-0.0509425,VALID,19.7268,VALID,200,VALID,0,
2000-02-21, 00:40:00,VALID,0,VALID,90.6451,VALID,-0.0509425,VALID,19.7114,VALID,199,VALID,0,
2000-02-21, 00:41:00,VALID,0,VALID,91.2236,VALID,-0.0849042,VALID,19.6764,VALID,183,VALID,0,
2000-02-21, 00:42:00,VALID,0,VALID,91.4563,VALID,-0.0509425,VALID,19.5984,VALID,171,VALID,0,
2000-02-21, 00:43:01,VALID,0,VALID,91.5187,VALID,-0.0679233,VALID,19.5367,VALID,169,VALID,0,
2000-02-21, 00:44:01,VALID,0,VALID,91.8086,VALID,-0.0509425,VALID,19.4684,VALID,162,VALID,0,
2000-02-21, 00:45:00,VALID,0,VALID,92.0871,VALID,-0.0849042,VALID,19.4463,VALID,162,VALID,0,
2000-02-21, 00:46:00,VALID,0,VALID,92.2486,VALID,-0.0509425,VALID,19.4339,VALID,162,VALID,0,
2000-02-21, 00:47:00,VALID,0,VALID,92.1786,VALID,-0.0679233,VALID,19.3914,VALID,162,VALID,0,
2000-02-21, 00:48:00,VALID,0,VALID,92.377,VALID,-0.101885,VALID,19.3273,VALID,162,VALID,0,
2000-02-21, 00:49:00,VALID,0,VALID,92.7419,VALID,-0.0849042,VALID,19.2627,VALID,162,VALID,0,
2000-02-21, 00:50:00,VALID,0,VALID,93.2417,VALID,-0.0679233,VALID,19.2205,VALID,162,VALID,0,
2000-02-21, 00:51:00,VALID,0,VALID,93.6066,VALID,-0.0849042,VALID,19.2105,VALID,162,VALID,0,
2000-02-21, 00:52:00,VALID,0,VALID,93.5125,VALID,-0.0509425,VALID,19.2108,VALID,162,VALID,0,
2000-02-21, 00:53:00,VALID,0,VALID,93.2404,VALID,-0.0339617,VALID,19.2242,VALID,162,VALID,0,
2000-02-21, 00:54:01,VALID,0,VALID,92.597,VALID,-0.0679233,VALID,19.2209,VALID,162,VALID,0,
2000-02-21, 00:55:01,VALID,0,VALID,92.405,VALID,-0.0849042,VALID,19.2274,VALID,162,VALID,0,
2000-02-21, 00:56:00,VALID,0,VALID,92.7216,VALID,-0.0679233,VALID,19.2433,VALID,162,VALID,0,
2000-02-21, 00:57:00,VALID,0,VALID,92.9518,VALID,-0.0679233,VALID,19.2796,VALID,162,VALID,0,
2000-02-21, 00:58:00,VALID,0,VALID,93.0802,VALID,-0.0679233,VALID,19.2659,VALID,161,VALID,0,
2000-02-21, 00:59:00,VALID,0,VALID,93.0954,VALID,0.0509425,VALID,19.2555,VALID,161,VALID,0,
2000-02-21, 01:00:00,VALID,0,VALID,93.3676,VALID,0.0509425,VALID,19.2282,VALID,161,VALID,0,
2000-02-21, 01:01:00,VALID,0,VALID,93.4311,VALID,0.0849042,VALID,19.2126,VALID,160,VALID,0,
2000-02-21, 01:02:00,VALID,0,VALID,93.2913,VALID,0.101885,VALID,19.2222,VALID,160,VALID,0,
2000-02-21, 01:03:00,VALID,0,VALID,92.8246,VALID,0.0679233,VALID,19.2317,VALID,160,VALID,0,
2000-02-21, 01:04:00,VALID,0,VALID,92.719,VALID,0.0849042,VALID,19.2806,VALID,160,VALID,0,
2000-02-21, 01:05:01,VALID,0,VALID,92.4228,VALID,0.0849042,VALID,19.3057,VALID,160,VALID,0,
2000-02-21, 01:06:01,VALID,0,VALID,92.2753,VALID,0.0509425,VALID,19.3325,VALID,160,VALID,0,
2000-02-21, 01:07:00,VALID,0,VALID,92.2664,VALID,0.0509425,VALID,19.3454,VALID,160,VALID,0,
2000-02-21, 01:08:00,VALID,0,VALID,92.4024,VALID,0.0509425,VALID,19.339,VALID,160,VALID,0,
2000-02-21, 01:09:00,VALID,0,VALID,92.5334,VALID,0.0509425,VALID,19.3286,VALID,153,VALID,0,
2000-02-21, 01:10:00,VALID,0,VALID,92.3159,VALID,0.0509425,VALID,19.3353,VALID,153,VALID,0,
2000-02-21, 01:11:00,VALID,0,VALID,91.9052,VALID,0.0169808,VALID,19.3748,VALID,153,VALID,0,
2000-02-21, 01:12:00,VALID,0,VALID,92.4139,VALID,0.0339617,VALID,19.3869,VALID,153,VALID,0,
2000-02-21, 01:13:00,VALID,0,VALID,91.9141,VALID,0.0509425,VALID,19.3936,VALID,151,VALID,0,
2000-02-21, 01:14:00,VALID,0,VALID,92.0362,VALID,0.0339617,VALID,19.4105,VALID,132,VALID,0,
2000-02-21, 01:15:00,VALID,0,VALID,91.792,VALID,0,VALID,19.4403,VALID,132,VALID,0,
2000-02-21, 01:16:01,VALID,0,VALID,91.717,VALID,-0.0169808,VALID,19.4331,VALID,132,VALID,0,
2000-02-21, 01:17:01,VALID,0,VALID,91.3826,VALID,0,VALID,19.4366,VALID,132,VALID,0,
2000-02-21, 01:18:00,VALID,0,VALID,91.3419,VALID,0,VALID,19.4523,VALID,132,VALID,0,
2000-02-21, 01:19:00,VALID,0,VALID,91.8645,VALID,0,VALID,19.4823,VALID,121,VALID,0,
2000-02-21, 01:20:00,VALID,0,VALID,92.2358,VALID,0,VALID,19.492,VALID,92,VALID,0,
2000-02-21, 01:21:00,VALID,0,VALID,92.3655,VALID,0.0339617,VALID,19.4788,VALID,93,VALID,0,
2000-02-21, 01:22:00,VALID,0,VALID,92.1354,VALID,-0.0169808,VALID,19.4657,VALID,102,VALID,0,
2000-02-21, 01:23:00,VALID,0,VALID,91.127,VALID,-0.0169808,VALID,19.4503,VALID,104,VALID,0,
2000-02-21, 01:24:00,VALID,0,VALID,91.4525,VALID,0,VALID,19.447,VALID,103,VALID,0,
2000-02-21, 01:25:00,VALID,0,VALID,91.4106,VALID,-0.0339617,VALID,19.4597,VALID,102,VALID,0,
2000-02-21, 01:26:01,VALID,0,VALID,90.5077,VALID,-0.0339617,VALID,19.531,VALID,44,VALID,0,
2000-02-21, 01:27:00,VALID,0,VALID,89.9317,VALID,-0.0169808,VALID,19.6468,VALID,96,VALID,0.374238,
2000-02-21, 01:28:01,VALID,0,VALID,89.6837,VALID,-0.0339617,VALID,19.6987,VALID,113,VALID,0.452324,
2000-02-21, 01:29:00,VALID,0,VALID,89.7473,VALID,-0.0169808,VALID,19.6987,VALID,114,VALID,0.455529,
2000-02-21, 01:30:00,VALID,0,VALID,90.0321,VALID,-0.0339617,VALID,19.6801,VALID,121,VALID,0.141335,
2000-02-21, 01:31:00,VALID,0,VALID,90.1148,VALID,0,VALID,19.6212,VALID,121,VALID,0,
2000-02-21, 01:32:00,VALID,0,VALID,90.3653,VALID,-0.0169808,VALID,19.6247,VALID,121,VALID,0,
2000-02-21, 01:33:00,VALID,0,VALID,90.4314,VALID,-0.0169808,VALID,19.618,VALID,121,VALID,0.00120192,
2000-02-21, 01:34:00,VALID,0,VALID,90.7036,VALID,-0.0169808,VALID,19.618,VALID,121,VALID,0,
2000-02-21, 01:35:00,VALID,0,VALID,90.9948,VALID,-0.0509425,VALID,19.5832,VALID,106,VALID,0.170025,
2000-02-21, 01:36:00,VALID,0,VALID,90.4645,VALID,-0.0339617,VALID,19.5765,VALID,99,VALID,0.595861,
2000-02-21, 01:37:00,VALID,0,VALID,90.4174,VALID,-0.0169808,VALID,19.5407,VALID,99,VALID,0.651521,
2000-02-21, 01:38:00,VALID,0,VALID,90.7023,VALID,-0.0339617,VALID,19.4634,VALID,99,VALID,0.641006,
2000-02-21, 01:39:01,VALID,0,VALID,91.258,VALID,-0.0339617,VALID,19.373,VALID,97,VALID,0.615017,
2000-02-21, 01:40:00,VALID,0,VALID,91.717,VALID,-0.0169808,VALID,19.2826,VALID,91,VALID,0.757813,
2000-02-21, 01:41:00,VALID,0,VALID,91.7959,VALID,-0.0339617,VALID,19.2634,VALID,95,VALID,0.577324,
2000-02-21, 01:42:00,VALID,0,VALID,91.7603,VALID,-0.0339617,VALID,19.2503,VALID,107,VALID,0.635896,
2000-02-21, 01:43:00,VALID,0,VALID,91.6051,VALID,-0.0509425,VALID,19.2567,VALID,104,VALID,0.465144,
2000-02-21, 01:44:00,VALID,0,VALID,91.4042,VALID,-0.0509425,VALID,19.2922,VALID,102,VALID,0.123264,
2000-02-21, 01:45:00,VALID,0,VALID,91.4068,VALID,-0.0679233,VALID,19.3213,VALID,102,VALID,0,
2000-02-21, 01:46:00,VALID,0,VALID,91.2631,VALID,-0.0679233,VALID,19.3208,VALID,102,VALID,0,
2000-02-21, 01:47:00,VALID,0,VALID,91.0927,VALID,-0.0509425,VALID,19.3506,VALID,102,VALID,0,
2000-02-21, 01:48:00,VALID,0,VALID,90.9146,VALID,-0.0169808,VALID,19.3596,VALID,102,VALID,0,
2000-02-21, 01:49:00,VALID,0,VALID,90.7163,VALID,0,VALID,19.3663,VALID,102,VALID,0,
2000-02-21, 01:50:01,VALID,0,VALID,90.5751,VALID,-0.0679233,VALID,19.3832,VALID,102,VALID,0.00133929,
2000-02-21, 01:51:00,VALID,0,VALID,90.5471,VALID,-0.0509425,VALID,19.3894,VALID,104,VALID,0.0470753,
2000-02-21, 01:52:00,VALID,0,VALID,90.0474,VALID,-0.0169808,VALID,19.4053,VALID,107,VALID,0.240451,
2000-02-21, 01:53:00,VALID,0,VALID,89.9571,VALID,-0.0509425,VALID,19.4244,VALID,124,VALID,0.33754,
2000-02-21, 01:54:00,VALID,0,VALID,89.7142,VALID,-0.0169808,VALID,19.4406,VALID,121,VALID,0.25293,
2000-02-21, 01:55:00,VALID,0,VALID,89.6227,VALID,-0.0169808,VALID,19.4734,VALID,119,VALID,0.181743,
2000-02-21, 01:56:00,VALID,0,VALID,89.4587,VALID,-0.0169808,VALID,19.499,VALID,107,VALID,0.128049,
2000-02-21, 01:57:00,VALID,0,VALID,89.5578,VALID,-0.0509425,VALID,19.5183,VALID,107,VALID,0,
2000-02-21, 01:58:00,VALID,0,VALID,89.423,VALID,-0.0339617,VALID,19.5126,VALID,106,VALID,0.00105574,
2000-02-21, 01:59:00,VALID,0,VALID,89.2806,VALID,0.0169808,VALID,19.5012,VALID,106,VALID,0,
2000-02-21, 02:00:00,VALID,0,VALID,89.5095,VALID,0.0679233,VALID,19.5077,VALID,110,VALID,0,
2000-02-21, 02:01:00,VALID,0,VALID,89.6685,VALID,0.0169808,VALID,19.4719,VALID,129,VALID,0,
2000-02-21, 02:02:00,VALID,0,VALID,89.8363,VALID,0.0849042,VALID,19.4461,VALID,129,VALID,0,
2000-02-21, 02:03:00,VALID,0,VALID,89.9787,VALID,0.0679233,VALID,19.4172,VALID,129,VALID,0,
2000-02-21, 02:04:00,VALID,0,VALID,90.1262,VALID,0.0849042,VALID,19.3812,VALID,129,VALID,0,
2000-02-21, 02:05:00,VALID,0,VALID,90.2865,VALID,0.0679233,VALID,19.3586,VALID,129,VALID,0,
2000-02-21, 02:06:00,VALID,0,VALID,90.2712,VALID,0.0679233,VALID,19.3459,VALID,156,VALID,0,
2000-02-21, 02:07:00,VALID,0,VALID,90.1936,VALID,0.0509425,VALID,19.3139,VALID,228,VALID,0,
2000-02-21, 02:08:00,VALID,0,VALID,90.1542,VALID,0.0339617,VALID,19.301,VALID,228,VALID,0,
2000-02-21, 02:09:00,VALID,0,VALID,90.4848,VALID,0.0339617,VALID,19.2684,VALID,228,VALID,0,
2000-02-21, 02:10:00,VALID,0,VALID,90.846,VALID,0.0509425,VALID,19.213,VALID,228,VALID,0,
2000-02-21, 02:11:01,VALID,0,VALID,90.9096,VALID,0.0849042,VALID,19.1778,VALID,228,VALID,0,
2000-02-21, 02:12:00,VALID,0,VALID,90.893,VALID,0.0849042,VALID,19.1581,VALID,227,VALID,0,
2000-02-21, 02:13:00,VALID,0,VALID,91.024,VALID,0.0679233,VALID,19.1556,VALID,223,VALID,0,
2000-02-21, 02:14:00,VALID,0,VALID,90.8116,VALID,-0.0169808,VALID,19.1298,VALID,223,VALID,0,
2000-02-21, 02:15:00,VALID,0,VALID,90.9185,VALID,-0.0169808,VALID,19.1531,VALID,223,VALID,0,
2000-02-21, 02:16:00,VALID,0,VALID,90.7849,VALID,0,VALID,19.1529,VALID,222,VALID,0,
2000-02-21, 02:17:00,VALID,0,VALID,90.3475,VALID,0,VALID,19.1658,VALID,187,VALID,0,
2000-02-21, 02:18:00,VALID,0,VALID,90.4035,VALID,0,VALID,19.2046,VALID,119,VALID,0,
2000-02-21, 02:19:00,VALID,0,VALID,90.3208,VALID,0,VALID,19.1782,VALID,111,VALID,0,
2000-02-21, 02:20:00,VALID,0,VALID,90.3589,VALID,0,VALID,19.1755,VALID,108,VALID,0.0198317,
2000-02-21, 02:21:00,VALID,0,VALID,89.8427,VALID,0,VALID,19.2113,VALID,88,VALID,0.382813,
2000-02-21, 02:22:00,VALID,0,VALID,89.6418,VALID,0,VALID,19.2756,VALID,105,VALID,0.465545,
2000-02-21, 02:23:00,VALID,0,VALID,89.4256,VALID,0,VALID,19.3111,VALID,103,VALID,0.444901,
2000-02-21, 02:24:00,VALID,0,VALID,89.3315,VALID,-0.0339617,VALID,19.3467,VALID,101,VALID,0.14886,
2000-02-21, 02:25:00,VALID,0,VALID,89.1903,VALID,-0.0169808,VALID,19.3596,VALID,101,VALID,0.360403,
2000-02-21, 02:26:00,VALID,0,VALID,89.2043,VALID,-0.0339617,VALID,19.3499,VALID,101,VALID,0.275343,
2000-02-21, 02:27:00,VALID,0,VALID,89.3061,VALID,0,VALID,19.3631,VALID,115,VALID,0.322049,
2000-02-21, 02:28:00,VALID,0,VALID,89.3646,VALID,-0.0339617,VALID,19.3601,VALID,118,VALID,0.0898438,
2000-02-21, 02:29:00,VALID,0,VALID,89.2895,VALID,0,VALID,19.3333,VALID,118,VALID,0,
2000-02-21, 02:30:00,VALID,0,VALID,89.3989,VALID,0,VALID,19.3305,VALID,118,VALID,0,
2000-02-21, 02:31:00,VALID,0,VALID,89.4701,VALID,0,VALID,19.3044,VALID,118,VALID,0,
2000-02-21, 02:32:00,VALID,0,VALID,89.5337,VALID,0,VALID,19.2818,VALID,118,VALID,0,
2000-02-21, 02:33:01,VALID,0,VALID,89.7766,VALID,0,VALID,19.2694,VALID,118,VALID,0.146115,
2000-02-21, 02:34:00,VALID,0,VALID,89.8897,VALID,0,VALID,19.2302,VALID,116,VALID,0.083826,
2000-02-21, 02:35:00,VALID,0,VALID,90.0805,VALID,0,VALID,19.1884,VALID,116,VALID,0,
2000-02-21, 02:36:00,VALID,0,VALID,90.289,VALID,0,VALID,19.1561,VALID,116,VALID,0,
2000-02-21, 02:37:00,VALID,0,VALID,90.3437,VALID,0,VALID,19.1335,VALID,116,VALID,0,
2000-02-21, 02:38:00,VALID,0,VALID,90.4772,VALID,0,VALID,19.1333,VALID,116,VALID,0,
2000-02-21, 02:39:00,VALID,0,VALID,90.5942,VALID,0,VALID,19.176,VALID,116,VALID,0,
2000-02-21, 02:40:00,VALID,0,VALID,90.5827,VALID,0,VALID,19.1817,VALID,116,VALID,0,
2000-02-21, 02:41:00,VALID,0,VALID,90.5815,VALID,-0.0169808,VALID,19.1884,VALID,116,VALID,0,
2000-02-21, 02:42:00,VALID,0,VALID,90.5382,VALID,0,VALID,19.1852,VALID,116,VALID,0,
2000-02-21, 02:43:00,VALID,0,VALID,90.5026,VALID,0,VALID,19.1981,VALID,116,VALID,0,
2000-02-21, 02:44:00,VALID,0,VALID,90.4162,VALID,-0.0509425,VALID,19.1886,VALID,167,VALID,0.0609756,
2000-02-21, 02:45:00,VALID,0,VALID,90.1415,VALID,0,VALID,19.1916,VALID,201,VALID,0.2481,
2000-02-21, 02:46:00,VALID,0,VALID,89.9915,VALID,0,VALID,19.2443,VALID,185,VALID,0.0772804,
2000-02-21, 02:47:00,VALID,0,VALID,89.8414,VALID,-0.0339617,VALID,19.2599,VALID,184,VALID,0.0193142,
2000-02-21, 02:48:00,VALID,0,VALID,90.2381,VALID,-0.0339617,VALID,19.2565,VALID,184,VALID,0,
2000-02-21, 02:49:00,VALID,0,VALID,90.2318,VALID,-0.0169808,VALID,19.2369,VALID,184,VALID,0,
2000-02-21, 02:50:00,VALID,0,VALID,90.3895,VALID,0,VALID,19.2043,VALID,184,VALID,0,
2000-02-21, 02:51:00,VALID,0,VALID,90.8638,VALID,-0.0509425,VALID,19.1755,VALID,184,VALID,0,
2000-02-21, 02:52:00,VALID,0,VALID,90.8918,VALID,-0.0339617,VALID,19.1434,VALID,184,VALID,0,
2000-02-21, 02:53:00,VALID,0,VALID,91.0253,VALID,-0.0169808,VALID,19.1146,VALID,184,VALID,0,
2000-02-21, 02:54:00,VALID,0,VALID,91.4258,VALID,-0.0169808,VALID,19.0955,VALID,184,VALID,0,
2000-02-21, 02:55:00,VALID,0,VALID,91.6127,VALID,-0.0169808,VALID,19.0855,VALID,184,VALID,0,
2000-02-21, 02:56:00,VALID,0,VALID,91.3648,VALID,-0.0169808,VALID,19.0659,VALID,184,VALID,0,
2000-02-21, 02:57:00,VALID,0,VALID,91.3597,VALID,-0.0849042,VALID,19.0694,VALID,184,VALID,0,
2000-02-21, 02:58:00,VALID,0,VALID,91.3635,VALID,-0.0509425,VALID,19.0632,VALID,184,VALID,0,
2000-02-21, 02:59:00,VALID,0,VALID,91.6255,VALID,-0.0169808,VALID,19.0364,VALID,184,VALID,0,
2000-02-21, 03:00:00,VALID,0,VALID,91.9281,VALID,0,VALID,19.014,VALID,184,VALID,0,
2000-02-21, 03:01:00,VALID,0,VALID,91.9434,VALID,0,VALID,18.9887,VALID,184,VALID,0,
2000-02-21, 03:02:00,VALID,0,VALID,92.2778,VALID,0,VALID,18.9566,VALID,184,VALID,0,
2000-02-21, 03:03:00,VALID,0,VALID,92.185,VALID,0,VALID,18.9146,VALID,180,VALID,0.00762195,
2000-02-21, 03:04:00,VALID,0,VALID,91.7068,VALID,0,VALID,18.8982,VALID,167,VALID,0.361378,
2000-02-21, 03:05:00,VALID,0,VALID,91.4805,VALID,0,VALID,18.9598,VALID,163,VALID,0.120994,
2000-02-21, 03:06:00,VALID,0,VALID,90.9121,VALID,0.0169808,VALID,19.0304,VALID,163,VALID,0.0409564,
2000-02-21, 03:07:00,VALID,0,VALID,90.8727,VALID,0,VALID,19.0816,VALID,163,VALID,0,
2000-02-21, 03:08:00,VALID,0,VALID,90.4225,VALID,0,VALID,19.1437,VALID,163,VALID,0,
2000-02-21, 03:09:00,VALID,0,VALID,89.8338,VALID,0,VALID,19.1956,VALID,163,VALID,0,
2000-02-21, 03:10:00,VALID,0,VALID,89.507,VALID,-0.0169808,VALID,19.2473,VALID,163,VALID,0,
2000-02-21, 03:11:00,VALID,0,VALID,89.4459,VALID,-0.0169808,VALID,19.2788,VALID,163,VALID,0,
2000-02-21, 03:12:00,VALID,0,VALID,89.2857,VALID,-0.0169808,VALID,19.3146,VALID,163,VALID,0,
2000-02-21, 03:13:00,VALID,0,VALID,89.2374,VALID,0,VALID,19.3402,VALID,163,VALID,0,
2000-02-21, 03:14:00,VALID,0,VALID,89.198,VALID,0,VALID,19.3628,VALID,163,VALID,0,
2000-02-21, 03:15:00,VALID,0,VALID,88.4465,VALID,0,VALID,19.3991,VALID,163,VALID,0,
2000-02-21, 03:16:00,VALID,0,VALID,88.599,VALID,0,VALID,19.4306,VALID,163,VALID,0,
2000-02-21, 03:17:00,VALID,0,VALID,88.3167,VALID,0,VALID,19.4793,VALID,163,VALID,0,
2000-02-21, 03:18:00,VALID,0,VALID,88.257,VALID,0,VALID,19.5278,VALID,163,VALID,0,
2000-02-21, 03:19:00,VALID,0,VALID,88.5901,VALID,-0.0169808,VALID,19.5472,VALID,163,VALID,0,
2000-02-21, 03:20:00,VALID,0,VALID,88.641,VALID,0,VALID,19.5464,VALID,163,VALID,0,
2000-02-21, 03:21:00,VALID,0,VALID,88.8724,VALID,0,VALID,19.5444,VALID,163,VALID,0,
2000-02-21, 03:22:00,VALID,0,VALID,88.7173,VALID,0,VALID,19.5156,VALID,163,VALID,0,
2000-02-21, 03:23:00,VALID,0,VALID,89.3073,VALID,0.0169808,VALID,19.4532,VALID,163,VALID,0,
2000-02-21, 03:24:00,VALID,0,VALID,89.7359,VALID,0,VALID,19.3857,VALID,163,VALID,0,
2000-02-21, 03:25:00,VALID,0,VALID,90.2687,VALID,0,VALID,19.3047,VALID,163,VALID,0,
2000-02-21, 03:26:00,VALID,0,VALID,90.5154,VALID,0,VALID,19.2336,VALID,163,VALID,0,
2000-02-21, 03:27:00,VALID,0,VALID,90.7455,VALID,0,VALID,19.1603,VALID,130,VALID,0.402043,
2000-02-21, 03:28:00,VALID,0,VALID,91.2364,VALID,-0.0169808,VALID,19.0982,VALID,127,VALID,0.288845,
2000-02-21, 03:29:00,VALID,0,VALID,91.3177,VALID,0,VALID,19.0721,VALID,127,VALID,0,
2000-02-21, 03:30:00,VALID,0,VALID,91.1105,VALID,0.0169808,VALID,19.0597,VALID,127,VALID,0,
2000-02-21, 03:31:00,VALID,0,VALID,91.2186,VALID,0.0169808,VALID,19.0595,VALID,127,VALID,0,
2000-02-21, 03:32:00,VALID,0,VALID,91.2313,VALID,0,VALID,19.0793,VALID,127,VALID,0,
2000-02-21, 03:33:00,VALID,0,VALID,91.1423,VALID,0,VALID,19.0922,VALID,127,VALID,0,
2000-02-21, 03:34:00,VALID,0,VALID,90.977,VALID,0.0169808,VALID,19.101,VALID,127,VALID,0,
2000-02-21, 03:35:00,VALID,0,VALID,90.7239,VALID,0,VALID,19.1171,VALID,127,VALID,0,
2000-02-21, 03:36:00,VALID,0,VALID,90.3602,VALID,0,VALID,19.1829,VALID,118,VALID,0,
2000-02-21, 03:37:00,VALID,0,VALID,90.022,VALID,0,VALID,19.2373,VALID,113,VALID,0,
2000-02-21, 03:38:00,VALID,0,VALID,89.7511,VALID,0,VALID,19.2987,VALID,113,VALID,0,
2000-02-21, 03:39:00,VALID,0,VALID,89.3226,VALID,0,VALID,19.3404,VALID,113,VALID,0,
2000-02-21, 03:40:00,VALID,0,VALID,89.0288,VALID,0,VALID,19.3896,VALID,113,VALID,0,
2000-02-21, 03:41:00,VALID,0,VALID,88.7008,VALID,0,VALID,19.4142,VALID,113,VALID,0,
2000-02-21, 03:42:00,VALID,0,VALID,88.1298,VALID,0.0169808,VALID,19.4637,VALID,114,VALID,0,
2000-02-21, 03:43:00,VALID,0,VALID,88.0065,VALID,0,VALID,19.5149,VALID,129,VALID,0,
2000-02-21, 03:44:00,VALID,0,VALID,87.8196,VALID,0,VALID,19.5834,VALID,129,VALID,0,
2000-02-21, 03:45:00,VALID,0,VALID,88.3384,VALID,0,VALID,19.6123,VALID,129,VALID,0,
2000-02-21, 03:46:00,VALID,0,VALID,89.17,VALID,0,VALID,19.6053,VALID,129,VALID,0,
2000-02-21, 03:47:00,VALID,0,VALID,89.6723,VALID,-0.0339617,VALID,19.5375,VALID,123,VALID,0,
2000-02-21, 03:48:00,VALID,0,VALID,89.741,VALID,-0.0339617,VALID,19.4604,VALID,123,VALID,0,
2000-02-21, 03:49:00,VALID,0,VALID,89.3277,VALID,-0.0169808,VALID,19.3735,VALID,109,VALID,0,
2000-02-21, 03:50:01,VALID,0,VALID,89.2666,VALID,0.0169808,VALID,19.3243,VALID,101,VALID,0,
2000-02-21, 03:51:00,VALID,0,VALID,89.6227,VALID,0.0169808,VALID,19.3216,VALID,102,VALID,0,
2000-02-21, 03:52:00,VALID,0,VALID,89.6519,VALID,-0.0339617,VALID,19.3017,VALID,104,VALID,0,
2000-02-21, 03:53:00,VALID,0,VALID,89.6189,VALID,0,VALID,19.2952,VALID,104,VALID,0,
2000-02-21, 03:54:00,VALID,0,VALID,89.6151,VALID,0,VALID,19.3119,VALID,104,VALID,0,
2000-02-21, 03:55:00,VALID,0,VALID,89.624,VALID,0.0339617,VALID,19.3245,VALID,104,VALID,0,
2000-02-21, 03:56:00,VALID,0,VALID,89.8846,VALID,0,VALID,19.3176,VALID,104,VALID,0,
2000-02-21, 03:57:00,VALID,0,VALID,89.9597,VALID,0,VALID,19.3501,VALID,104,VALID,0,
2000-02-21, 03:58:00,VALID,0,VALID,89.8694,VALID,0.0169808,VALID,19.3566,VALID,104,VALID,0,
2000-02-21, 03:59:00,VALID,0,VALID,89.0695,VALID,0,VALID,19.3663,VALID,104,VALID,0,
2000-02-21, 04:00:01,VALID,0,VALID,89.6176,VALID,-0.0509425,VALID,19.4028,VALID,104,VALID,0,
2000-02-21, 04:01:01,VALID,0,VALID,89.4319,VALID,-0.0169808,VALID,19.4023,VALID,104,VALID,0,
2000-02-21, 04:02:00,VALID,0,VALID,89.7829,VALID,-0.0509425,VALID,19.3837,VALID,104,VALID,0,
2000-02-21, 04:03:00,VALID,0,VALID,89.4879,VALID,-0.0169808,VALID,19.3539,VALID,104,VALID,0,
2000-02-21, 04:04:00,VALID,0,VALID,89.9838,VALID,-0.0169808,VALID,19.3317,VALID,104,VALID,0,
2000-02-21, 04:05:00,VALID,0,VALID,90.0614,VALID,-0.0509425,VALID,19.3156,VALID,104,VALID,0,
2000-02-21, 04:06:00,VALID,0,VALID,90.2216,VALID,-0.0509425,VALID,19.3024,VALID,104,VALID,0,
2000-02-21, 04:07:00,VALID,0,VALID,90.1046,VALID,-0.0509425,VALID,19.2741,VALID,105,VALID,0,
2000-02-21, 04:08:00,VALID,0,VALID,90.2496,VALID,-0.0169808,VALID,19.2545,VALID,117,VALID,0,
2000-02-21, 04:09:00,VALID,0,VALID,90.3971,VALID,-0.0169808,VALID,19.2058,VALID,101,VALID,0,
2000-02-21, 04:10:00,VALID,0,VALID,90.2114,VALID,-0.0339617,VALID,19.1702,VALID,88,VALID,0,
2000-02-21, 04:11:00,VALID,0,VALID,89.7498,VALID,-0.0849042,VALID,19.1926,VALID,85,VALID,0.222538,
2000-02-21, 04:12:01,VALID,0,VALID,89.6494,VALID,-0.0849042,VALID,19.2612,VALID,81,VALID,0.483941,
2000-02-21, 04:13:00,VALID,0,VALID,89.7829,VALID,-0.0509425,VALID,19.2833,VALID,95,VALID,0.55127,
2000-02-21, 04:14:00,VALID,0,VALID,89.9202,VALID,-0.0169808,VALID,19.2733,VALID,102,VALID,0.571429,
2000-02-21, 04:15:00,VALID,0,VALID,90.0703,VALID,0.0849042,VALID,19.2364,VALID,103,VALID,0.6875,
2000-02-21, 04:16:00,VALID,0,VALID,90.2127,VALID,0.0679233,VALID,19.1946,VALID,89,VALID,0.640408,
2000-02-21, 04:17:00,VALID,0,VALID,90.1529,VALID,0.0169808,VALID,19.1755,VALID,87,VALID,0.683694,
2000-02-21, 04:18:00,VALID,0,VALID,90.1949,VALID,0.0509425,VALID,19.1752,VALID,84,VALID,0.779053,